owner,sensor,date,latitude,longitude,vertical_datum,direction_of_sea_water_velocity,sea_water_speed,upward_sea_water_velocity,qcFlag 
TABS,ioos:station:wmo:42049:1,2010-11-01T00:00:00Z,28.3507,-96.0058,2.0,145.9919527,26.99767397,-99999.0,'11111222,11111222,99999999' 
TABS,ioos:station:wmo:42049:1,2010-11-01T00:30:00Z,28.3507,-96.0058,2.0,52.99436686,26.99807586,-99999.0,'11111222,11111222,99999999' 
TABS,ioos:station:wmo:42049:1,2010-11-01T01:00:00Z,28.3507,-96.0058,2.0,52.98914257,25.99807878,-99999.0,'11111222,11111222,99999999' 
TABS,ioos:station:wmo:42049:1,2010-11-01T01:30:00Z,28.3507,-96.0058,2.0,52.98914257,25.99807878,-99999.0,'11111222,11111222,99999999' 
TABS,ioos:station:wmo:42049:1,2010-11-01T02:00:00Z,28.3507,-96.0058,2.0,47.99323024,26.00043077,-99999.0,'11111222,11111222,99999999' 
TABS,ioos:station:wmo:42049:1,2010-11-01T02:30:00Z,28.3507,-96.0058,2.0,45.00010523,26.99733691,-99999.0,'11111222,11111222,99999999' 
TABS,ioos:station:wmo:42049:1,2010-11-01T03:00:00Z,28.3507,-96.0058,2.0,44.00267572,25.99718446,-99999.0,'11111222,11111222,99999999' 
TABS,ioos:station:wmo:42049:1,2010-11-01T03:30:00Z,28.3507,-96.0058,2.0,45.00010523,26.99733691,-99999.0,'11111222,11111222,99999999' 
TABS,ioos:station:wmo:42049:1,2010-11-01T04:00:00Z,28.3507,-96.0058,2.0,44.00267572,25.99718446,-99999.0,'11111222,11111222,99999999' 
TABS,ioos:station:wmo:42049:1,2010-11-01T04:30:00Z,28.3507,-96.0058,2.0,45.00010523,26.99733691,-99999.0,'11111222,11111222,99999999' 
TABS,ioos:station:wmo:42049:1,2010-11-01T05:00:00Z,28.3507,-96.0058,2.0,47.99621975,22.99826515,-99999.0,'11111222,11111222,99999999' 
TABS,ioos:station:wmo:42049:1,2010-11-01T05:30:00Z,28.3507,-96.0058,2.0,51.00467856,23.99651016,-99999.0,'11111222,11111222,99999999' 
TABS,ioos:station:wmo:42049:1,2010-11-01T06:00:00Z,28.3507,-96.0058,2.0,51.0099127,26.00180186,-99999.0,'11111222,11111222,99999999' 
TABS,ioos:station:wmo:42049:1,2010-11-01T06:30:00Z,28.3507,-96.0058,2.0,51.0099127,26.00180186,-99999.0,'11111222,11111222,99999999' 
TABS,ioos:station:wmo:42049:1,2010-11-01T07:00:00Z,28.3507,-96.0058,2.0,51.00740059,24.99915599,-99999.0,'11111222,11111222,99999999' 
TABS,ioos:station:wmo:42049:1,2010-11-01T07:30:00Z,28.3507,-96.0058,2.0,53.01082282,24.00005208,-99999.0,'11111222,11111222,99999999' 
TABS,ioos:station:wmo:42049:1,2010-11-01T08:00:00Z,28.3507,-96.0058,2.0,56.99396151,23.0022825,-99999.0,'11111222,11111222,99999999' 
TABS,ioos:station:wmo:42049:1,2010-11-01T08:30:00Z,28.3507,-96.0058,2.0,51.00171914,22.9938644,-99999.0,'11111222,11111222,99999999' 
TABS,ioos:station:wmo:42049:1,2010-11-01T09:00:00Z,28.3507,-96.0058,2.0,53.99903352,24.00475994,-99999.0,'11111222,11111222,99999999' 
TABS,ioos:station:wmo:42049:1,2010-11-01T09:30:00Z,28.3507,-96.0058,2.0,59.99673771,21.99778398,-99999.0,'11111222,11111222,99999999' 
TABS,ioos:station:wmo:42049:1,2010-11-01T10:00:00Z,28.3507,-96.0058,2.0,53.00563302,23.00005435,-99999.0,'11111222,11111222,99999999' 
TABS,ioos:station:wmo:42049:1,2010-11-01T10:30:00Z,28.3507,-96.0058,2.0,58.93786985,1.996246478,-99999.0,'11133222,11111222,99999999' 
TABS,ioos:station:wmo:42049:1,2010-11-01T11:00:00Z,28.3507,-96.0058,2.0,56.00546135,24.00221656,-99999.0,'11111222,11111222,99999999' 
TABS,ioos:station:wmo:42049:1,2010-11-01T11:30:00Z,28.3507,-96.0058,2.0,59.00505315,22.00155676,-99999.0,'11111222,11111222,99999999' 
TABS,ioos:station:wmo:42049:1,2010-11-01T12:00:00Z,28.3507,-96.0058,2.0,54.00882029,20.99846899,-99999.0,'11111222,11111222,99999999' 
TABS,ioos:station:wmo:42049:1,2010-11-01T12:30:00Z,28.3507,-96.0058,2.0,56.99396151,23.0022825,-99999.0,'11111222,11111222,99999999' 
TABS,ioos:station:wmo:42049:1,2010-11-01T13:00:00Z,28.3507,-96.0058,2.0,57.00350683,21.99824766,-99999.0,'11111222,11111222,99999999' 
TABS,ioos:station:wmo:42049:1,2010-11-01T13:30:00Z,28.3507,-96.0058,2.0,60.00479844,21.00300217,-99999.0,'11111222,11111222,99999999' 
TABS,ioos:station:wmo:42049:1,2010-11-01T14:00:00Z,28.3507,-96.0058,2.0,56.00885426,18.99597063,-99999.0,'11111222,11111222,99999999' 
TABS,ioos:station:wmo:42049:1,2010-11-01T14:30:00Z,28.3507,-96.0058,2.0,58.99495465,19.00547816,-99999.0,'11111222,11111222,99999999' 
TABS,ioos:station:wmo:42049:1,2010-11-01T15:00:00Z,28.3507,-96.0058,2.0,61.9949891,20.99883806,-99999.0,'11111222,11111222,99999999' 
TABS,ioos:station:wmo:42049:1,2010-11-01T15:30:00Z,28.3507,-96.0058,2.0,49.98913584,20.00204989,-99999.0,'11111222,11111222,99999999' 
TABS,ioos:station:wmo:42049:1,2010-11-01T16:00:00Z,28.3507,-96.0058,2.0,50.9973176,18.00247205,-99999.0,'11111222,11111222,99999999' 
TABS,ioos:station:wmo:42049:1,2010-11-01T16:30:00Z,28.3507,-96.0058,2.0,58.99700497,19.99673973,-99999.0,'11111222,11111222,99999999' 
TABS,ioos:station:wmo:42049:1,2010-11-01T17:00:00Z,28.3507,-96.0058,2.0,50.99092279,21.00263793,-99999.0,'11111222,11111222,99999999' 
TABS,ioos:station:wmo:42049:1,2010-11-01T17:30:00Z,28.3507,-96.0058,2.0,50.99464192,22.00528346,-99999.0,'11111222,11111222,99999999' 
TABS,ioos:station:wmo:42049:1,2010-11-01T18:00:00Z,28.3507,-96.0058,2.0,59.00505315,22.00155676,-99999.0,'11111222,11111222,99999999' 
TABS,ioos:station:wmo:42049:1,2010-11-01T18:30:00Z,28.3507,-96.0058,2.0,57.00350683,21.99824766,-99999.0,'11111222,11111222,99999999' 
TABS,ioos:station:wmo:42049:1,2010-11-01T19:00:00Z,28.3507,-96.0058,2.0,61.9935794,24.00060416,-99999.0,'11111222,11111222,99999999' 
TABS,ioos:station:wmo:42049:1,2010-11-01T19:30:00Z,28.3507,-96.0058,2.0,51.00171914,22.9938644,-99999.0,'11111222,11111222,99999999' 
TABS,ioos:station:wmo:42049:1,2010-11-01T20:00:00Z,28.3507,-96.0058,2.0,50.99464192,22.00528346,-99999.0,'11111222,11111222,99999999' 
TABS,ioos:station:wmo:42049:1,2010-11-01T20:30:00Z,28.3507,-96.0058,2.0,53.99903352,24.00475994,-99999.0,'11111222,11111222,99999999' 
TABS,ioos:station:wmo:42049:1,2010-11-01T21:00:00Z,28.3507,-96.0058,2.0,45.00010523,23.99920415,-99999.0,'11111222,11111222,99999999' 
TABS,ioos:station:wmo:42049:1,2010-11-01T21:30:00Z,28.3507,-96.0058,2.0,51.00171914,22.9938644,-99999.0,'11111222,11111222,99999999' 
TABS,ioos:station:wmo:42049:1,2010-11-01T22:00:00Z,28.3507,-96.0058,2.0,75.00989773,21.9986045,-99999.0,'11111222,11111222,99999999' 
TABS,ioos:station:wmo:42049:1,2010-11-01T22:30:00Z,28.3507,-96.0058,2.0,45.00010523,18.00293865,-99999.0,'11111222,11111222,99999999' 
TABS,ioos:station:wmo:42049:1,2010-11-01T23:00:00Z,28.3507,-96.0058,2.0,45.00010523,19.99697977,-99999.0,'11111222,11111222,99999999' 
TABS,ioos:station:wmo:42049:1,2010-11-01T23:30:00Z,28.3507,-96.0058,2.0,40.99261294,16.99798223,-99999.0,'11111222,11111222,99999999' 
TABS,ioos:station:wmo:42049:1,2010-11-02T00:00:00Z,28.3507,-96.0058,2.0,40.99261294,16.99798223,-99999.0,'11111222,11111222,99999999' 
TABS,ioos:station:wmo:42049:1,2010-11-02T00:30:00Z,28.3507,-96.0058,2.0,36.00023602,16.99595834,-99999.0,'11111222,11111222,99999999' 
TABS,ioos:station:wmo:42049:1,2010-11-02T01:00:00Z,28.3507,-96.0058,2.0,39.01232313,15.997181,-99999.0,'11111222,11111222,99999999' 
TABS,ioos:station:wmo:42049:1,2010-11-02T01:30:00Z,28.3507,-96.0058,2.0,34.99550122,14.00149278,-99999.0,'11111222,11111222,99999999' 
TABS,ioos:station:wmo:42049:1,2010-11-02T02:00:00Z,28.3507,-96.0058,2.0,35.99589402,15.99386132,-99999.0,'11111222,11111222,99999999' 
TABS,ioos:station:wmo:42049:1,2010-11-02T02:30:00Z,28.3507,-96.0058,2.0,26.9922399,18.0008472,-99999.0,'11111222,11111222,99999999' 
TABS,ioos:station:wmo:42049:1,2010-11-02T03:00:00Z,28.3507,-96.0058,2.0,29.99768516,18.00133606,-99999.0,'11111222,11111222,99999999' 
TABS,ioos:station:wmo:42049:1,2010-11-02T03:30:00Z,28.3507,-96.0058,2.0,17.01422371,19.00164467,-99999.0,'11111222,11111222,99999999' 
TABS,ioos:station:wmo:42049:1,2010-11-02T04:00:00Z,28.3507,-96.0058,2.0,15.00081541,15.99506486,-99999.0,'11111222,11111222,99999999' 
TABS,ioos:station:wmo:42049:1,2010-11-02T04:30:00Z,28.3507,-96.0058,2.0,10.98626636,17.00157934,-99999.0,'11111222,11111222,99999999' 
TABS,ioos:station:wmo:42049:1,2010-11-02T05:00:00Z,28.3507,-96.0058,2.0,5.004410987,17.9986055,-99999.0,'11111222,11111222,99999999' 
TABS,ioos:station:wmo:42049:1,2010-11-02T05:30:00Z,28.3507,-96.0058,2.0,347.9998354,13.99586367,-99999.0,'11111222,11111222,99999999' 
TABS,ioos:station:wmo:42049:1,2010-11-02T06:00:00Z,28.3507,-96.0058,2.0,352.9868486,14.00478847,-99999.0,'11111222,11111222,99999999' 
TABS,ioos:station:wmo:42049:1,2010-11-02T06:30:00Z,28.3507,-96.0058,2.0,341.0109168,16.9948757,-99999.0,'11111222,11111222,99999999' 
TABS,ioos:station:wmo:42049:1,2010-11-02T07:00:00Z,28.3507,-96.0058,2.0,80.98768386,18.0022443,-99999.0,'11111222,11111222,99999999' 
TABS,ioos:station:wmo:42049:1,2010-11-02T07:30:00Z,28.3507,-96.0058,2.0,357.0013311,12.99779981,-99999.0,'11111222,11111222,99999999' 
TABS,ioos:station:wmo:42049:1,2010-11-02T08:00:00Z,28.3507,-96.0058,2.0,40.9974567,16.00551155,-99999.0,'11111222,11111222,99999999' 
TABS,ioos:station:wmo:42049:1,2010-11-02T08:30:00Z,28.3507,-96.0058,2.0,45.00010523,14.00071427,-99999.0,'11111222,11111222,99999999' 
TABS,ioos:station:wmo:42049:1,2010-11-02T09:00:00Z,28.3507,-96.0058,2.0,63.00807663,15.00443268,-99999.0,'11111222,11111222,99999999' 
TABS,ioos:station:wmo:42049:1,2010-11-02T09:30:00Z,28.3507,-96.0058,2.0,61.99686905,17.99707198,-99999.0,'11111222,11111222,99999999' 
TABS,ioos:station:wmo:42049:1,2010-11-02T10:00:00Z,28.3507,-96.0058,2.0,97.98598897,8.997255137,-99999.0,'11133222,11111222,99999999' 
TABS,ioos:station:wmo:42049:1,2010-11-02T10:30:00Z,28.3507,-96.0058,2.0,146.0095489,8.997360724,-99999.0,'11133222,11111222,99999999' 
TABS,ioos:station:wmo:42049:1,2010-11-02T11:00:00Z,28.3507,-96.0058,2.0,347.0056241,4.002499219,-99999.0,'11133222,11111222,99999999' 
TABS,ioos:station:wmo:42049:1,2010-11-02T11:30:00Z,28.3507,-96.0058,2.0,297.078109,1.999124809,-99999.0,'11133222,11111222,99999999' 
TABS,ioos:station:wmo:42049:1,2010-11-02T12:00:00Z,28.3507,-96.0058,2.0,292.9730885,4.996248593,-99999.0,'11133222,11111222,99999999' 
TABS,ioos:station:wmo:42049:1,2010-11-02T12:30:00Z,28.3507,-96.0058,2.0,244.9728502,6.996942189,-99999.0,'11133222,11111222,99999999' 
TABS,ioos:station:wmo:42049:1,2010-11-02T13:00:00Z,28.3507,-96.0058,2.0,315.0003157,7.000357134,-99999.0,'11133222,11111222,99999999' 
TABS,ioos:station:wmo:42049:1,2010-11-02T13:30:00Z,28.3507,-96.0058,2.0,284.021188,8.998072016,-99999.0,'11133222,11111222,99999999' 
TABS,ioos:station:wmo:42049:1,2010-11-02T14:00:00Z,28.3507,-96.0058,2.0,305.0527128,6.999521412,-99999.0,'11133222,11111222,99999999' 
TABS,ioos:station:wmo:42049:1,2010-11-02T14:30:00Z,28.3507,-96.0058,2.0,244.9728502,6.996942189,-99999.0,'11133222,11111222,99999999' 
TABS,ioos:station:wmo:42049:1,2010-11-02T15:00:00Z,28.3507,-96.0058,2.0,306.004305,8.999027725,-99999.0,'11133222,11111222,99999999' 
TABS,ioos:station:wmo:42049:1,2010-11-02T15:30:00Z,28.3507,-96.0058,2.0,244.9723588,9.998824931,-99999.0,'11133222,11111222,99999999' 
TABS,ioos:station:wmo:42049:1,2010-11-02T16:00:00Z,28.3507,-96.0058,2.0,285.020996,12.00000833,-99999.0,'11111222,11111222,99999999' 
TABS,ioos:station:wmo:42049:1,2010-11-02T16:30:00Z,28.3507,-96.0058,2.0,297.0208054,9.002694041,-99999.0,'11133222,11111222,99999999' 
TABS,ioos:station:wmo:42049:1,2010-11-02T17:00:00Z,28.3507,-96.0058,2.0,275.9819113,11.99530742,-99999.0,'11111222,11111222,99999999' 
TABS,ioos:station:wmo:42049:1,2010-11-02T17:30:00Z,28.3507,-96.0058,2.0,270.0004209,6.0,-99999.0,'11133222,11111222,99999999' 
TABS,ioos:station:wmo:42049:1,2010-11-02T18:00:00Z,28.3507,-96.0058,2.0,56.99792652,72.99826025,-99999.0,'11111222,11111222,99999999' 
TABS,ioos:station:wmo:42049:1,2010-11-02T18:30:00Z,28.3507,-96.0058,2.0,264.0074592,15.99740604,-99999.0,'11111222,11111222,99999999' 
TABS,ioos:station:wmo:42049:1,2010-11-02T19:00:00Z,28.3507,-96.0058,2.0,278.9985537,14.00232124,-99999.0,'11111222,11111222,99999999' 
TABS,ioos:station:wmo:42049:1,2010-11-02T19:30:00Z,28.3507,-96.0058,2.0,278.0160848,16.99605248,-99999.0,'11111222,11111222,99999999' 
TABS,ioos:station:wmo:42049:1,2010-11-02T20:00:00Z,28.3507,-96.0058,2.0,282.0024554,18.99523361,-99999.0,'11111222,11111222,99999999' 
TABS,ioos:station:wmo:42049:1,2010-11-02T20:30:00Z,28.3507,-96.0058,2.0,278.9918356,19.00352073,-99999.0,'11111222,11111222,99999999' 
TABS,ioos:station:wmo:42049:1,2010-11-02T21:00:00Z,28.3507,-96.0058,2.0,278.0160848,16.99605248,-99999.0,'11111222,11111222,99999999' 
TABS,ioos:station:wmo:42049:1,2010-11-02T21:30:00Z,28.3507,-96.0058,2.0,282.0071011,14.99810988,-99999.0,'11111222,11111222,99999999' 
TABS,ioos:station:wmo:42049:1,2010-11-02T22:00:00Z,28.3507,-96.0058,2.0,265.9854128,11.99943749,-99999.0,'11111222,11111222,99999999' 
TABS,ioos:station:wmo:42049:1,2010-11-02T22:30:00Z,28.3507,-96.0058,2.0,266.9807762,15.00081664,-99999.0,'11111222,11111222,99999999' 
TABS,ioos:station:wmo:42049:1,2010-11-02T23:00:00Z,28.3507,-96.0058,2.0,275.9819113,11.99530742,-99999.0,'11111222,11111222,99999999' 
TABS,ioos:station:wmo:42049:1,2010-11-02T23:30:00Z,28.3507,-96.0058,2.0,253.9755069,9.998484885,-99999.0,'11133222,11111222,99999999' 
TABS,ioos:station:wmo:42049:1,2010-11-03T00:00:00Z,28.3507,-96.0058,2.0,267.0006997,12.99779981,-99999.0,'11111222,11111222,99999999' 
TABS,ioos:station:wmo:42049:1,2010-11-03T00:30:00Z,28.3507,-96.0058,2.0,270.0004209,11.0,-99999.0,'11111222,11111222,99999999' 
TABS,ioos:station:wmo:42049:1,2010-11-03T01:00:00Z,28.3507,-96.0058,2.0,270.0004209,11.0,-99999.0,'11111222,11111222,99999999' 
TABS,ioos:station:wmo:42049:1,2010-11-03T01:30:00Z,28.3507,-96.0058,2.0,277.9864099,8.997255137,-99999.0,'11133222,11111222,99999999' 
TABS,ioos:station:wmo:42049:1,2010-11-03T02:00:00Z,28.3507,-96.0058,2.0,247.9855231,8.003524224,-99999.0,'11133222,11111222,99999999' 
TABS,ioos:station:wmo:42049:1,2010-11-03T02:30:00Z,28.3507,-96.0058,2.0,241.9608661,7.998824914,-99999.0,'11133222,11111222,99999999' 
TABS,ioos:station:wmo:42049:1,2010-11-03T03:00:00Z,28.3507,-96.0058,2.0,232.9960335,5.998016339,-99999.0,'11133222,11111222,99999999' 
TABS,ioos:station:wmo:42049:1,2010-11-03T03:30:00Z,28.3507,-96.0058,2.0,289.9753236,6.001008249,-99999.0,'11133222,11111222,99999999' 
TABS,ioos:station:wmo:42049:1,2010-11-03T04:00:00Z,28.3507,-96.0058,2.0,251.9272992,2.997899264,-99999.0,'11133222,11111222,99999999' 
TABS,ioos:station:wmo:42049:1,2010-11-03T04:30:00Z,28.3507,-96.0058,2.0,349.9723251,4.996328652,-99999.0,'11133222,11111222,99999999' 
TABS,ioos:station:wmo:42049:1,2010-11-03T05:00:00Z,28.3507,-96.0058,2.0,23.96991534,7.9999125,-99999.0,'11133222,11111222,99999999' 
TABS,ioos:station:wmo:42049:1,2010-11-03T05:30:00Z,28.3507,-96.0058,2.0,22.97287807,4.996248593,-99999.0,'11133222,11111222,99999999' 
TABS,ioos:station:wmo:42049:1,2010-11-03T06:00:00Z,28.3507,-96.0058,2.0,244.8442655,1.999649969,-99999.0,'11133222,11111222,99999999' 
TABS,ioos:station:wmo:42049:1,2010-11-03T06:30:00Z,28.3507,-96.0058,2.0,38.01578205,5.0009999,-99999.0,'11133222,11111222,99999999' 
TABS,ioos:station:wmo:42049:1,2010-11-03T07:00:00Z,28.3507,-96.0058,2.0,56.94616161,3.996861269,-99999.0,'11133222,11111222,99999999' 
TABS,ioos:station:wmo:42049:1,2010-11-03T07:30:00Z,28.3507,-96.0058,2.0,47.9383652,4.000412479,-99999.0,'11133222,11111222,99999999' 
TABS,ioos:station:wmo:42049:1,2010-11-03T08:00:00Z,28.3507,-96.0058,2.0,33.0280044,5.999483311,-99999.0,'11133222,11111222,99999999' 
TABS,ioos:station:wmo:42049:1,2010-11-03T08:30:00Z,28.3507,-96.0058,2.0,84.01243504,6.998178334,-99999.0,'11133222,11111222,99999999' 
TABS,ioos:station:wmo:42049:1,2010-11-03T09:00:00Z,28.3507,-96.0058,2.0,102.0066802,4.99936996,-99999.0,'11133222,11111222,99999999' 
TABS,ioos:station:wmo:42049:1,2010-11-03T09:30:00Z,28.3507,-96.0058,2.0,34.92174668,4.000312488,-99999.0,'11133222,11111222,99999999' 
TABS,ioos:station:wmo:42049:1,2010-11-03T10:00:00Z,28.3507,-96.0058,2.0,65.03503192,4.004122875,-99999.0,'11133222,11111222,99999999' 
TABS,ioos:station:wmo:42049:1,2010-11-03T10:30:00Z,28.3507,-96.0058,2.0,65.03503192,4.004122875,-99999.0,'11133222,11111222,99999999' 
TABS,ioos:station:wmo:42049:1,2010-11-03T11:00:00Z,28.3507,-96.0058,2.0,19.99305769,5.001409801,-99999.0,'11133222,11111222,99999999' 
TABS,ioos:station:wmo:42049:1,2010-11-03T11:30:00Z,28.3507,-96.0058,2.0,80.81947951,1.00284595,-99999.0,'11133222,11111222,99999999' 
TABS,ioos:station:wmo:42049:1,2010-11-03T12:00:00Z,28.3507,-96.0058,2.0,90.0,4.0,-99999.0,'11133222,11111222,99999999' 
TABS,ioos:station:wmo:42049:1,2010-11-03T12:30:00Z,28.3507,-96.0058,2.0,69.02833848,5.001299831,-99999.0,'11133222,11111222,99999999' 
TABS,ioos:station:wmo:42049:1,2010-11-03T13:00:00Z,28.3507,-96.0058,2.0,49.95813498,8.999788886,-99999.0,'11133222,11111222,99999999' 
TABS,ioos:station:wmo:42049:1,2010-11-03T13:30:00Z,28.3507,-96.0058,2.0,83.976021,8.004198898,-99999.0,'11133222,11111222,99999999' 
TABS,ioos:station:wmo:42049:1,2010-11-03T14:00:00Z,28.3507,-96.0058,2.0,72.00798926,9.00011111,-99999.0,'11133222,11111222,99999999' 
TABS,ioos:station:wmo:42049:1,2010-11-03T14:30:00Z,28.3507,-96.0058,2.0,78.00312875,8.996493761,-99999.0,'11133222,11111222,99999999' 
TABS,ioos:station:wmo:42049:1,2010-11-03T15:00:00Z,28.3507,-96.0058,2.0,41.98259272,8.999805553,-99999.0,'11133222,11111222,99999999' 
TABS,ioos:station:wmo:42049:1,2010-11-03T15:30:00Z,28.3507,-96.0058,2.0,73.97592781,9.998484885,-99999.0,'11133222,11111222,99999999' 
TABS,ioos:station:wmo:42049:1,2010-11-03T16:00:00Z,28.3507,-96.0058,2.0,65.02930916,9.00142211,-99999.0,'11133222,11111222,99999999' 
TABS,ioos:station:wmo:42049:1,2010-11-03T16:30:00Z,28.3507,-96.0058,2.0,62.0253355,9.998249847,-99999.0,'11133222,11111222,99999999' 
TABS,ioos:station:wmo:42049:1,2010-11-03T17:00:00Z,28.3507,-96.0058,2.0,53.98955881,10.00112494,-99999.0,'11111222,11111222,99999999' 
TABS,ioos:station:wmo:42049:1,2010-11-03T17:30:00Z,28.3507,-96.0058,2.0,67.97520557,9.999769997,-99999.0,'11133222,11111222,99999999' 
TABS,ioos:station:wmo:42049:1,2010-11-03T18:00:00Z,28.3507,-96.0058,2.0,69.011154,10.99984091,-99999.0,'11111222,11111222,99999999' 
TABS,ioos:station:wmo:42049:1,2010-11-03T18:30:00Z,28.3507,-96.0058,2.0,76.9892997,7.995254843,-99999.0,'11133222,11111222,99999999' 
TABS,ioos:station:wmo:42049:1,2010-11-03T19:00:00Z,28.3507,-96.0058,2.0,67.97520557,9.999769997,-99999.0,'11133222,11111222,99999999' 
TABS,ioos:station:wmo:42049:1,2010-11-03T19:30:00Z,28.3507,-96.0058,2.0,72.00798926,9.00011111,-99999.0,'11133222,11111222,99999999' 
TABS,ioos:station:wmo:42049:1,2010-11-03T20:00:00Z,28.3507,-96.0058,2.0,102.0066802,9.998739921,-99999.0,'11133222,11111222,99999999' 
TABS,ioos:station:wmo:42049:1,2010-11-03T20:30:00Z,28.3507,-96.0058,2.0,90.0,4.0,-99999.0,'11133222,11111222,99999999' 
TABS,ioos:station:wmo:42049:1,2010-11-03T21:00:00Z,28.3507,-96.0058,2.0,128.0155716,10.0019998,-99999.0,'11111222,11111222,99999999' 
TABS,ioos:station:wmo:42049:1,2010-11-03T21:30:00Z,28.3507,-96.0058,2.0,104.991339,8.002362151,-99999.0,'11133222,11111222,99999999' 
TABS,ioos:station:wmo:42049:1,2010-11-03T22:00:00Z,28.3507,-96.0058,2.0,107.0364652,6.997042232,-99999.0,'11133222,11111222,99999999' 
TABS,ioos:station:wmo:42049:1,2010-11-03T22:30:00Z,28.3507,-96.0058,2.0,111.032891,8.999605547,-99999.0,'11133222,11111222,99999999' 
TABS,ioos:station:wmo:42049:1,2010-11-03T23:00:00Z,28.3507,-96.0058,2.0,107.0364652,6.997042232,-99999.0,'11133222,11111222,99999999' 
TABS,ioos:station:wmo:42049:1,2010-11-03T23:30:00Z,28.3507,-96.0058,2.0,122.9837608,9.000694418,-99999.0,'11133222,11111222,99999999' 
TABS,ioos:station:wmo:42049:1,2010-11-04T00:00:00Z,28.3507,-96.0058,2.0,122.9837608,9.000694418,-99999.0,'11133222,11111222,99999999' 
TABS,ioos:station:wmo:42049:1,2010-11-04T00:30:00Z,28.3507,-96.0058,2.0,173.9758105,8.004198898,-99999.0,'11133222,11111222,99999999' 
TABS,ioos:station:wmo:42049:1,2010-11-04T01:00:00Z,28.3507,-96.0058,2.0,155.9985647,8.997999778,-99999.0,'11133222,11111222,99999999' 
TABS,ioos:station:wmo:42049:1,2010-11-04T01:30:00Z,28.3507,-96.0058,2.0,155.0290987,9.00142211,-99999.0,'11133222,11111222,99999999' 
TABS,ioos:station:wmo:42049:1,2010-11-04T02:00:00Z,28.3507,-96.0058,2.0,245.9906035,34.99797851,-99999.0,'11111222,11111222,99999999' 
TABS,ioos:station:wmo:42049:1,2010-11-04T02:30:00Z,28.3507,-96.0058,2.0,154.9730607,6.996942189,-99999.0,'11133222,11111222,99999999' 
TABS,ioos:station:wmo:42049:1,2010-11-04T03:00:00Z,28.3507,-96.0058,2.0,207.0038171,7.003570518,-99999.0,'11133222,11111222,99999999' 
TABS,ioos:station:wmo:42049:1,2010-11-04T03:30:00Z,28.3507,-96.0058,2.0,249.0279176,5.001299831,-99999.0,'11133222,11111222,99999999' 
TABS,ioos:station:wmo:42049:1,2010-11-04T04:00:00Z,28.3507,-96.0058,2.0,230.0140735,11.0022634,-99999.0,'11111222,11111222,99999999' 
TABS,ioos:station:wmo:42049:1,2010-11-04T04:30:00Z,28.3507,-96.0058,2.0,179.9997895,8.0,-99999.0,'11133222,11111222,99999999' 
TABS,ioos:station:wmo:42049:1,2010-11-04T05:00:00Z,28.3507,-96.0058,2.0,197.0182428,11.0017635,-99999.0,'11111222,11111222,99999999' 
TABS,ioos:station:wmo:42049:1,2010-11-04T05:30:00Z,28.3507,-96.0058,2.0,179.9997895,9.0,-99999.0,'11133222,11111222,99999999' 
TABS,ioos:station:wmo:42049:1,2010-11-04T06:00:00Z,28.3507,-96.0058,2.0,222.0065593,13.00021538,-99999.0,'11111222,11111222,99999999' 
TABS,ioos:station:wmo:42049:1,2010-11-04T06:30:00Z,28.3507,-96.0058,2.0,219.0037453,12.99701504,-99999.0,'11111222,11111222,99999999' 
TABS,ioos:station:wmo:42049:1,2010-11-04T07:00:00Z,28.3507,-96.0058,2.0,211.9979543,17.00342613,-99999.0,'11111222,11111222,99999999' 
TABS,ioos:station:wmo:42049:1,2010-11-04T07:30:00Z,28.3507,-96.0058,2.0,223.9966307,21.00429004,-99999.0,'11111222,11111222,99999999' 
TABS,ioos:station:wmo:42049:1,2010-11-04T08:00:00Z,28.3507,-96.0058,2.0,221.9821718,17.99961111,-99999.0,'11111222,11111222,99999999' 
TABS,ioos:station:wmo:42049:1,2010-11-04T08:30:00Z,28.3507,-96.0058,2.0,224.0131409,22.99852169,-99999.0,'11111222,11111222,99999999' 
TABS,ioos:station:wmo:42049:1,2010-11-04T09:00:00Z,28.3507,-96.0058,2.0,218.995111,23.99651016,-99999.0,'11111222,11111222,99999999' 
TABS,ioos:station:wmo:42049:1,2010-11-04T09:30:00Z,28.3507,-96.0058,2.0,224.9996843,25.00329578,-99999.0,'11111222,11111222,99999999' 
TABS,ioos:station:wmo:42049:1,2010-11-04T10:00:00Z,28.3507,-96.0058,2.0,230.0015782,24.00577014,-99999.0,'11111222,11111222,99999999' 
TABS,ioos:station:wmo:42049:1,2010-11-04T10:30:00Z,28.3507,-96.0058,2.0,241.9931585,24.00060416,-99999.0,'11111222,11111222,99999999' 
TABS,ioos:station:wmo:42049:1,2010-11-04T11:00:00Z,28.3507,-96.0058,2.0,224.9996843,26.99733691,-99999.0,'11111222,11111222,99999999' 
TABS,ioos:station:wmo:42049:1,2010-11-04T11:30:00Z,28.3507,-96.0058,2.0,253.9980152,28.00508525,-99999.0,'11111222,11111222,99999999' 
TABS,ioos:station:wmo:42049:1,2010-11-04T12:00:00Z,28.3507,-96.0058,2.0,332.9987277,27.00354051,-99999.0,'11111222,11111222,99999999' 
TABS,ioos:station:wmo:42049:1,2010-11-04T12:30:00Z,28.3507,-96.0058,2.0,232.9967113,31.0040836,-99999.0,'11111222,11111222,99999999' 
TABS,ioos:station:wmo:42049:1,2010-11-04T13:00:00Z,28.3507,-96.0058,2.0,242.0043565,30.99708696,-99999.0,'11111222,11111222,99999999' 
TABS,ioos:station:wmo:42049:1,2010-11-04T13:30:00Z,28.3507,-96.0058,2.0,236.0056009,23.00096737,-99999.0,'11111222,11111222,99999999' 
TABS,ioos:station:wmo:42049:1,2010-11-04T14:00:00Z,28.3507,-96.0058,2.0,242.9997168,32.9963695,-99999.0,'11111222,11111222,99999999' 
TABS,ioos:station:wmo:42049:1,2010-11-04T14:30:00Z,28.3507,-96.0058,2.0,247.9943118,36.00284017,-99999.0,'11111222,11111222,99999999' 
TABS,ioos:station:wmo:42049:1,2010-11-04T15:00:00Z,28.3507,-96.0058,2.0,247.9916717,33.99732342,-99999.0,'11111222,11111222,99999999' 
TABS,ioos:station:wmo:42049:1,2010-11-04T15:30:00Z,28.3507,-96.0058,2.0,80.99388923,32.0045653,-99999.0,'11111222,11111222,99999999' 
TABS,ioos:station:wmo:42049:1,2010-11-04T16:00:00Z,28.3507,-96.0058,2.0,33.00440713,38.00245913,-99999.0,'11111222,11111222,99999999' 